Flag for Germany Weather past 2 weeks in Papenburg, Lower Saxony, Germany

Now
47 °F

Overcast.


Feels Like: 44 °F
Forecast: 42 / 57 °F
Wind: 8 mph from Northwest

Location: Emden-Koenigspolder

Current Time: Apr 21, 2015 at 5:45:48 PM

Latest Report: Apr 21, 2015 at 5:00 PM


Visibility: 11 mi

Pressure: 30.47 "Hg

Humidity: 77%

Dew point: 41 °F

Location of PapenburgLocation

Historic Weather in Papenburg — Graph

°F

Papenburg temperature yesterday

Maximum temperature yesterday: 57 °F (at 2:00 PM)
Minimum temperature yesterday: 36 °F (at 6:00 AM)
Average temperature yesterday: 48 °F

Past Weeks' High & Low Weather Summary

 TemperatureHumidityPressure
High65 °F (Apr 10, 6:00 PM)100% (Apr 7, 2:00 AM)30.58 "Hg (Apr 7, 2:00 AM)
Low32 °F (Apr 7, 4:00 AM)39% (Apr 12, 6:00 PM)29.89 "Hg (Apr 11, 7:00 AM)
Average47 °F78%30.26 "Hg
* Reported Apr 6 4:00 PM — Apr 21 4:00 PM, Papenburg, Weather by CustomWeather, © 2015

Note: Actual official high and low records may vary slightly from our data, if they occured in-between our weather recording intervals... More about our weather records

Advertising

Papenburg weather history for previous 24 hours

 ConditionsComfort  
Time TempWeatherWind HumidityBarometerVisibility
4:00 PM
Tue, Apr 21
51 °FOvercast.9 mph73%30.47 "Hg14 mi
3:00 PM51 °FOvercast.8 mph70%30.47 "Hg7 mi
2:00 PM52 °FOvercast.7 mph70%30.47 "Hg11 mi
1:00 PM52 °FOvercast.9 mph69%30.48 "Hg6 mi
12:00 PM53 °FOvercast.7 mph60%30.47 "Hg8 mi
10:00 AM53 °FScattered clouds.6 mph62%30.45 "Hg14 mi
9:00 AM50 °FSunny.5 mph74%30.45 "Hg9 mi
8:00 AM46 °FPassing clouds.5 mph87%30.43 "Hg8 mi
7:00 AM40 °FSunny.3 mph98%30.42 "Hg9 mi
6:00 AM39 °FFog.3 mph98%30.42 "Hg3 mi
4:00 AM41 °FOvercast.2 mph91%30.41 "Hg14 mi
3:00 AM41 °FPassing clouds.2 mph89%30.42 "Hg11 mi
2:00 AM42 °FPassing clouds.2 mph89%30.42 "Hg16 mi
1:00 AM41 °FOvercast.2 mph91%30.41 "Hg14 mi
12:00 AM42 °FPassing clouds.2 mph93%30.40 "Hg10 mi
10:00 PM
Mon, Apr 20
46 °FPassing clouds.3 mph90%30.41 "Hg17 mi
9:00 PM48 °FPassing clouds.5 mph84%30.40 "Hg22 mi
8:00 PM53 °FOvercast.3 mph70%30.39 "Hg25 mi
7:00 PM55 °FScattered clouds.3 mph62%30.38 "Hg22 mi
6:00 PM57 °FOvercast.5 mph63%30.39 "Hg16 mi
Weather by CustomWeather, © 2015

See weather overviewHow to use our weather pages